EW9311 Weather Reports


Display with metric or nautical units.
time (UTC)temp
F
wind
direction
speed
MPH
gust
MPH
rain 1hr
in
rain 24hr
in
rain mn
in
humidity
%
barometer
mb
20260506140028 38 0 0.0 0.0 0.00 0.00 0.00 79 1013.4
20260506134528 38 0 0.0 2.0 0.00 0.00 0.00 79 1013.4
20260506133029 38 0 0.0 1.0 0.00 0.00 0.00 79 1013.3
20260506131532 39 0 0.0 0.0 0.00 0.00 0.00 78 1013.3
20260506130030 38 0 0.0 1.0 0.00 0.00 0.00 79 1013.2
20260506124530 38 0 0.0 0.0 0.00 0.01 0.00 79 1013.0
20260506123033 38 0 0.0 1.0 0.00 0.01 0.00 80 1013.1
20260506121530 38 0 0.0 1.0 0.00 0.01 0.00 80 1012.9
20260506120038 39 0 0.0 4.0 0.00 0.01 0.00 80 1012.8
20260506114532 39 0 0.0 2.0 0.00 0.01 0.00 79 1012.8
20260506113031 40 0 0.0 2.0 0.00 0.01 0.00 79 1012.7
20260506111529 40 0 0.0 2.0 0.00 0.01 0.00 78 1012.9
20260506110032 40 0 0.0 2.0 0.00 0.01 0.00 78 1012.7
20260506104527 40 0 0.0 4.0 0.00 0.01 0.00 79 1012.7
20260506103035 40 0 0.0 8.0 0.00 0.01 0.00 79 1012.3
20260506101527 40 201 0.0 10.0 0.00 0.01 0.00 79 1012.1
20260506100030 41 0 0.0 15.0 0.00 0.01 0.00 76 1012.0
20260506094533 42 218 1.0 12.0 0.00 0.01 0.00 70 1012.0
20260506093030 43 0 2.0 12.0 0.00 0.01 0.00 67 1011.9
20260506091532 43 228 0.0 6.0 0.00 0.01 0.00 66 1011.8
20260506090041 43 0 0.0 5.0 0.00 0.01 0.00 64 1011.7
20260506084530 44 0 0.0 0.0 0.00 0.01 0.00 61 1011.7
20260506083028 44 0 0.0 0.0 0.00 0.01 0.00 60 1011.5
20260506081533 44 0 0.0 2.0 0.00 0.01 0.00 62 1011.4
20260506073030 45 161 3.0 12.0 0.00 0.01 0.01 60 1010.9
20260506071530 45 0 2.0 11.0 0.00 0.01 0.01 60 1010.9
20260506061544 45 140 1.0 12.0 0.00 0.01 0.01 60 1010.4
20260506044530 46 0 1.0 11.0 0.00 0.01 0.01 59 1009.5
20260506043038 47 0 0.0 13.0 0.00 0.01 0.01 58 1009.4
20260506041531 47 143 0.0 11.0 0.00 0.01 0.01 58 1009.2
20260506040028 48 134 0.0 18.0 0.00 0.01 0.01 57 1009.1
20260506034528 49 0 2.0 19.0 0.00 0.01 0.01 55 1009.0
20260506033027 49 161 2.0 15.0 0.00 0.01 0.01 54 1008.8
20260506031543 49 0 0.0 13.0 0.00 0.01 0.01 54 1008.6
20260506030030 49 142 2.0 16.0 0.00 0.01 0.01 54 1008.6
20260506024540 50 0 0.0 16.0 0.00 0.01 0.01 56 1008.6
20260506023030 50 160 0.0 9.0 0.00 0.01 0.01 56 1008.6
20260506021532 50 0 0.0 10.0 0.00 0.01 0.01 55 1008.5
20260506020030 51 149 2.0 16.0 0.00 0.01 0.01 54 1008.4
20260506014530 51 157 1.0 12.0 0.00 0.01 0.01 55 1008.3
20260506013030 51 176 6.0 14.0 0.00 0.01 0.01 53 1008.3
20260506011532 51 0 1.0 12.0 0.00 0.01 0.01 53 1008.4
20260506010030 51 0 1.0 12.0 0.00 0.01 0.01 53 1008.5
20260506004531 52 61 1.0 12.0 0.00 0.01 0.01 57 1008.3
20260506003030 50 0 1.0 11.0 0.00 0.01 0.01 57 1008.3
20260506001526 50 128 1.0 11.0 0.00 0.01 0.01 58 1008.4
20260506000038 50 148 2.0 10.0 0.00 0.01 0.01 57 1008.2
20260505234529 50 0 0.0 4.0 0.00 0.01 0.01 60 1008.3
20260505233030 50 0 0.0 2.0 0.00 0.01 0.01 66 1008.3
20260505231530 49 0 0.0 0.0 0.00 0.01 0.01 67 1008.3
20260505230036 49 0 0.0 3.0 0.00 0.01 0.01 67 1008.3
20260505224529 49 298 1.0 6.0 0.00 0.01 0.01 69 1008.3
20260505223034 49 309 0.0 3.0 0.00 0.01 0.01 67 1008.2
20260505221527 49 269 0.0 6.0 0.00 0.01 0.01 71 1008.2
20260505220034 48 0 0.0 4.0 0.00 0.01 0.01 74 1008.2
20260505214539 47 0 0.0 9.0 0.00 0.01 0.01 77 1008.0
20260505213029 48 241 0.0 3.0 0.00 0.01 0.01 76 1008.0
20260505211534 47 0 0.0 1.0 0.00 0.01 0.01 75 1007.9
20260505210029 47 314 2.0 6.0 0.00 0.01 0.01 78 1007.7
20260505204532 47 0 2.0 7.0 0.00 0.01 0.01 78 1007.6
20260505203028 46 292 1.0 6.0 0.00 0.01 0.01 80 1007.6
20260505201529 46 313 1.0 8.0 0.00 0.01 0.01 82 1007.5
20260505200041 46 319 2.0 5.0 0.00 0.01 0.01 83 1007.5
20260505194531 45 316 2.0 7.0 0.00 0.01 0.01 86 1007.2
20260505193029 44 0 0.0 5.0 0.00 0.01 0.01 88 1007.2
20260505191530 44 0 1.0 4.0 0.00 0.01 0.01 90 1007.3
20260505190031 44 0 0.0 3.0 0.00 0.01 0.01 91 1007.2
20260505184530 43 313 0.0 2.0 0.00 0.01 0.01 93 1007.2
20260505183033 43 0 0.0 2.0 0.00 0.01 0.01 96 1007.2
20260505181530 42 0 0.0 3.0 0.00 0.01 0.01 96 1007.2
20260505180030 42 5 0.0 3.0 0.00 0.01 0.01 97 1007.1
20260505174530 41 0 0.0 0.0 0.00 0.05 0.01 97 1007.0
20260505173028 41 0 0.0 0.0 0.00 0.05 0.01 98 1007.0
20260505171529 41 0 0.0 0.0 0.00 0.05 0.01 98 1006.7
20260505170029 40 0 0.0 0.0 0.00 0.05 0.01 98 1006.5
20260505164530 40 0 0.0 0.0 0.00 0.07 0.01 98 1006.4
20260505163032 40 0 0.0 0.0 0.00 0.07 0.01 98 1006.3
20260505161529 40 0 0.0 1.0 0.00 0.07 0.01 98 1006.2
20260505153035 39 104 0.0 3.0 0.00 0.08 0.01 98 1005.8
20260505151531 39 0 0.0 3.0 0.00 0.08 0.01 98 1005.8